Location: Coed Ely
(51.5661°N, 3.4150°W)
Time: 23:58:50
(UTC+00:00)

Cosmos 2112 Rocket - Pass Details

Date: 28 January 2021
Orbit: 757 x 786 km, 74.1° (Epoch: 01 March)

Event Time Altitude Azimuth Distance (km) Brightness Sun altitude
Rises 17:28:23 0° 335° (NNW) 3,251 7.3 -5.4°
Reaches altitude 10° 17:30:47 10° 338° (NNW) 2,316 6.5 -5.7°
Maximum altitude 17:36:03 74° 63° (ENE) 798 4.0 -6.5°
Drops below altitude 10° 17:41:14 10° 149° (SSE) 2,286 6.4 -7.2°
Sets 17:43:35 0° 151° (SSE) 3,205 7.1 -7.6°
